Regional Weather Roundup
Issued by NWS

Home | Current Version | Previous Version | Text Only | Print | Product List | Glossary On
Versions: 1 2 3 4 5 6 7 8 9 10 11 12 13 14 15 16 17 18 19 20 21 22 23 24 25 26 27 28 29 30 31 32 33 34 35 36 37 38 39 40 41 42 43 44 45 46 47 48 49 50
000
ASCA44 KEWX 260120
RWRMX

LATIN AMERICA AND CARIBBEAN REGIONAL WEATHER ROUNDUP
NATIONAL WEATHER SERVICE AUSTIN/SAN ANTONIO TX
800 PM CDT SAT APR 25 2015

NOTE: "FAIR" INDICATED FEW OR NO CLOUDS BELOW 12,000 FEET WITH NO
SIGNIFICANT WEATHER AND/OR OBSTRUCTIONS TO VISIBILITY.

BAJA CALIFORNIA

CITY           SKY/WX    TMP DP  RH WIND       PRES   REMARKS
LORETO         PTSUNNY   81  68  65 S7        29.83S
LA PAZ         PTCLDY    82  41  23 NW9       29.88R
MEXICALI       MOSUNNY   72  43  35 W23       29.80R BLWGDUST
S.J. DEL CABO  PTCLDY    77  52  41 SE10      29.89S
TIJUANA        CLOUDY    59  54  82 W16       29.97F FOG

NORTHWESTERN MEXICO

CITY           SKY/WX    TMP DP  RH WIND       PRES   REMARKS
CULIACAN       MOCLDY    86  59  39 W12       29.83S
DURANGO        PTCLDY    75  37  25 SW22      30.09R
GUAYMAS        SUNNY     81  45  28 S9        29.80R
HERMOSILLO     SUNNY     84  36  17 S13       29.86R
CD. JUAREZ     PTCLDY    77  28  16 W15       29.76F
LOS MOCHIS     MOCLDY    79  50  36 W15       29.85S
OBREGON        PTCLDY    84  34  16 W9        29.81R

NORTHEASTERN MEXICO

CITY           SKY/WX    TMP DP  RH WIND       PRES   REMARKS
CHIHUAHUA      PTCLDY    82  21  10 W21       29.83S
MATAMOROS      MOCLDY    82  79  89 E7        29.71R HX  93
MONTERREY      PTCLDY    81  70  69 SE6       29.74R
NUEVO LAREDO   PTCLDY    91  66  43 CALM      29.68S HX  94
REYNOSA        PTCLDY    81  73  78 NE6       29.69R
SALTILLO       PTCLDY    77  55  47 N9        29.92S
TORREON        MOCLDY    93  28  10 SW14      29.80R
CD. VICTORIA   PTCLDY    88  68  51 N3        29.71R HX  91

WESTERN MEXICO

CITY           SKY/WX    TMP DP  RH WIND       PRES   REMARKS
AGUASCALIENTES MOCLDY    75  32  20 SW12      30.13R
COLIMA         MOCLDY    84  63  48 CALM      29.93R
DEL BAJIO      MOCLDY    79  45  29 W12       30.17R
GUADALAJARA    MOCLDY    81  43  26 SW10      30.07R
MANZANILLO     PTCLDY    81  73  78 W9        29.75S
MAZATLAN       CLEAR     79  63  57 SW10      29.81R
P. VALLARTA    CLEAR     79  73  83 SW10      29.84R
ZACATECAS      MOCLDY    72  39  30 SW17      30.16R

CENTRAL MEXICO

CITY           SKY/WX    TMP DP  RH WIND       PRES   REMARKS
MEXICO CITY    CLEAR     75  39  27 S13       30.19R
MORELIA        MOCLDY    75  46  35 S5        30.12R
POZA RICA      CLEAR     91  77  62 E7        29.68S HX 105
PUEBLA         CLEAR     72  39  30 S12       30.21R
QUERETARO      MOCLDY    77  45  31 W14       30.15R
S. LUIS POTOSI MOCLDY    77  34  20 W8        30.07S
TAMPICO        PTCLDY    84  77  79 SE14      29.65R HAZE    HX  94
TOLUCA         PTCLDY    68  39  34 S14       30.30R

SOUTHERN MEXICO

CITY           SKY/WX    TMP DP  RH WIND       PRES   REMARKS
ACAPULCO       CLEAR     82  79  89 W10       29.77R HX  93
B. DE HUATULCO   N/A    N/A N/A N/A MISG        N/A
OAXACA         MOCLDY    82  45  26 S8        30.05R
VERACRUZ       PTCLDY    86  77  74 E5        29.68R HX  97
ZIHUATANEJO    PTCLDY    84  77  79 CALM      29.80R HX  94

YUCATAN PENINSULA

CITY           SKY/WX    TMP DP  RH WIND       PRES   REMARKS
CAMPECHE       PTCLDY    86  79  79 N10       29.71R HX  99
CANCUN         CLEAR     82  75  78 S12       29.88R
CHETUMAL       CLEAR     84  73  70 SE17      29.81S HX  91
CD. DEL CARMEN PTCLDY    88  79  74 CALM      29.70R HX 102
COZUMEL        PTCLDY    77  73  88 SE6       29.89R
MERIDA         CLEAR     88  72  58 NW7       29.76R HX  94
MINATITLAN       N/A    N/A N/A N/A MISG        N/A
TAPACHULA      MOCLDY    84  79  84 CALM      29.80S HX  96
TUX. GUTIERREZ CLOUDY    91  61  35 CALM      29.78R HX  91
VILLAHERMOSA   PTCLDY    90  77  66 NE5       29.72R HX 102

CENTRAL AMERICA

CITY           SKY/WX    TMP DP  RH WIND       PRES   REMARKS
BELIZE CITY      N/A     82  75  78 E3        29.82R
MANAGUA        MOCLDY    88  64  45 E7        29.77R

CARIBBEAN

CITY           SKY/WX    TMP DP  RH WIND       PRES   REMARKS
CURACAO        PTCLDY    81  75  83 E10       29.86S
KINGSTON       PTCLDY    82  75  78 SE14      29.89R
NASSAU         PTCLDY    81  72  74 CALM      29.92R
SAN JUAN       PTCLDY    82  72  69 SW6       29.96R
SANTO DOMINGO  PTCLDY    77  72  83 S5        29.94R
ST. CROIX      PTCLDY    81  73  78 SE8       29.98R
ST. KITTS      PTCLDY    75  70  83 CALM      29.97
ST. MAARTEN    PTCLDY    81  73  78 VRB3      29.97R
ST. THOMAS     MOCLDY    81  73  78 SE8       29.97R

$$




USA.gov is the U.S. government's official web portal to all federal, state and local government web resources and services.